Weather in Bobrovo

Russia / Arkhangel'skaya Oblast'     64°21′22″N   41°09′02″E
temp.,
°C
wind,
m/s
gust,
m/s
humid.,
%
clouds,
%
prec.,
mm/h
press.,
hPa
HPBL,
m
8 may, sat
sat800:00+6wsw1581100 0.0 1006180
03:00+5sw2683100 0.0 1008335
06:00+5sw2479100 0.0 1009303
09:00+7ssw3564100 0.0 1011935
12:00+10s4656100 0.1 10111669
15:00+13se4846100 0.1 10101897
18:00+13sse51148100 0.0 10081735
21:00+11sse51257100 0.1 1008832
9 may, sun
sun900:00+9se3970100 0.0 1007527
03:00+8se41284100 0.9 10061439
06:00+7sse5989100 1.2 10051188
09:00+7sse3791100 3.3 1004992
12:00+7wnw3690100 1.4 1005499
15:00+5nw4785100 1.6 1008731
18:00+6nw4106451 0.0 10101145
21:00+3w2278100 0.0 101331
10 may, mon
mon1000:00+1sw26855 0.0 1014116
03:00+1wsw28870 0.0 1016164
06:00+4sw27771 0.0 1018230
09:00+9sw41054100 0.0 10181508
12:00+11wsw51048100 0.1 10182091
15:00+11sw5749100 0.4 10201765
18:00+11sw365895 0.3 10211356
21:00+7s278284 0.4 1021175
11 may, tue
tue1100:00+7ssw2888100 0.1 1022335
03:00+7s3792100 0.2 1021429
06:00+7sse3896100 1.9 1020407
09:00+10ssw41093100 3.2 1019515
12:00+11wsw41091100 2.7 1019908
15:00+14w3980100 2.7 10211044
18:00+15s1283100 0.0 1022162
21:00+12s2695100 0.0 1022120
12 may, wed
wed1200:00+11sw31187100 0.0 1022251
03:00+10sw31188100 0.0 1023260
06:00+13sw3118095 0.0 1023415
09:00+17wsw5106245 0.0 1023666
12:00+22wsw574515 0.0 10231464
15:00+23wsw57375 0.0 10232013
18:00+23wsw47405 0.0 10231547
21:00+16w11645 0.0 102511